Athens, GA

11:48 PM EDT on April 24, 2017 (GMT -0400)
Athens / Epps

Weather History for KAHN - November, 2011

Change the Weather History Date:

Saturday, November 19, 2011

  Actual Average Record
Temperature  
Mean Temperature 47 °F 53 °F  
Max Temperature 60 °F 64 °F 81 °F (1942)
Min Temperature 34 °F 41 °F 20 °F (2008)
Degree Days  
Heating Degree Days 18 12  
Month to date heating degree days 217 187  
Since 1 July heating degree days 376 322  
Moisture  
Dew Point 32 °F    
Average Humidity 53    
Maximum Humidity 64    
Minimum Humidity 42    
Precipitation  
Precipitation 0.00 in 0.14 in 1.96 in (1932)
Month to date precipitation 0.94 2.33  
Year to date precipitation 31.29 41.11  
Snow  
Snow 0.00 in 0.00 in 0.00 in (2001)
Month to date snowfall 0.0 0.0  
Since 1 July snowfall 0.0 0.0  
Since 1 September snowfall 0.0 0.0  
Snow Depth -    
Sea Level Pressure  
Sea Level Pressure 30.38 in    
Wind  
Wind Speed 6 mph (ENE)    
Max Wind Speed 14 mph    
Max Gust Speed 16 mph    
Visibility 10 miles    
Events      
T = Trace of Precipitation, MM = Missing Value Source: NWS Daily Summary

Daily Weather History Graph

Daily Weather History Graph

Search for Another Location

Airport or City:

Trip Planner

Search our weather history database for the weather conditions in past years. The results will help you decide how hot, cold, wet, or windy it might be!

Date:

Astronomy

Nov. 19, 2011 Rise Set
Actual Time 7:09 AM EST 5:27 PM EST
Civil Twilight 6:42 AM EST 5:54 PM EST
Nautical Twilight 6:12 AM EST 6:24 PM EST
Astronomical Twilight 5:42 AM EST 6:54 PM EST
Moon 12:45 AM EST (11/19) 1:29 PM EST (11/19)
Length of Visible Light 11h 12m
Length of Day
10h 18m
Last Quarter, 38% of the Moon is Illuminated
Nov 19
Last Quarter
Nov 25
New
Dec 2
First Quarter
Dec 10
Full
Dec 17
Last Quarter

Hourly Weather History & Observations

Time (EST) Temp. Windchill Dew Point Humidity Pressure Visibility Wind Dir Wind Speed Gust Speed Precip Events Conditions
12:51 AM 36.0 °F 31.1 °F 24.1 °F 62% 30.41 in 10.0 mi East 5.8 mph - N/A   Mostly Cloudy
1:51 AM 39.0 °F 35.7 °F 24.1 °F 55% 30.40 in 10.0 mi ENE 4.6 mph - N/A   Overcast
3:51 AM 37.9 °F 33.5 °F 26.1 °F 62% 30.40 in 10.0 mi ENE 5.8 mph - N/A   Mostly Cloudy
4:51 AM 39.9 °F 36.7 °F 24.1 °F 53% 30.40 in 10.0 mi NE 4.6 mph - N/A   Overcast
5:28 AM 41.0 °F 39.0 °F 24.8 °F 53% 30.40 in 10.0 mi NE 3.5 mph - N/A   Overcast
5:51 AM 41.0 °F 38.0 °F 25.0 °F 53% 30.42 in 10.0 mi ENE 4.6 mph - N/A   Overcast
6:51 AM 41.0 °F 37.1 °F 26.1 °F 55% 30.43 in 10.0 mi ENE 5.8 mph - N/A   Overcast
7:51 AM 42.1 °F 38.4 °F 26.1 °F 53% 30.43 in 10.0 mi ENE 5.8 mph - N/A   Overcast
8:51 AM 44.6 °F 40.7 °F 26.6 °F 49% 30.42 in 10.0 mi ENE 6.9 mph - N/A   Overcast
9:51 AM 46.4 °F 42.4 °F 24.8 °F 43% 30.42 in 10.0 mi ENE 8.1 mph - N/A   Overcast
10:51 AM 48.0 °F - 27.0 °F 44% 30.44 in 10.0 mi ENE 5.8 mph - N/A   Overcast
11:51 AM 51.1 °F - 30.0 °F 44% 30.41 in 10.0 mi East 6.9 mph - N/A   Overcast
12:51 PM 54.0 °F - 34.0 °F 47% 30.38 in 10.0 mi Variable 5.8 mph - N/A   Overcast
1:41 PM 57.2 °F - 37.4 °F 48% 30.34 in 10.0 mi Variable 3.5 mph - N/A   Scattered Clouds
1:51 PM 57.0 °F - 37.0 °F 47% 30.35 in 10.0 mi East 6.9 mph - N/A   Clear
2:51 PM 60.1 °F - 39.0 °F 46% 30.33 in 10.0 mi Variable 3.5 mph - N/A   Clear
3:51 PM 60.1 °F - 41.0 °F 49% 30.32 in 10.0 mi East 8.1 mph - N/A   Scattered Clouds
4:51 PM 57.2 °F - 41.0 °F 55% 30.31 in 10.0 mi ENE 8.1 mph - N/A   Clear
5:51 PM 53.1 °F - 41.0 °F 64% 30.34 in 10.0 mi Calm Calm - N/A   Clear
6:51 PM 52.0 °F - 39.0 °F 61% 30.34 in 10.0 mi NE 5.8 mph - N/A   Clear
7:51 PM 52.0 °F - 37.9 °F 59% 30.35 in 10.0 mi NE 5.8 mph - N/A   Mostly Cloudy
8:51 PM 52.0 °F - 37.0 °F 57% 30.34 in 10.0 mi ENE 8.1 mph - N/A   Overcast
9:51 PM 53.1 °F - 37.0 °F 55% 30.34 in 10.0 mi NE 5.8 mph - N/A   Overcast
10:51 PM 51.1 °F - 37.9 °F 61% 30.34 in 10.0 mi NE 4.6 mph - N/A   Overcast
11:51 PM 51.8 °F - 37.4 °F 58% 30.32 in 10.0 mi ENE 8.1 mph - N/A   Overcast